Time,TemperatureF,DewpointF,PressureIn,WindDirection,WindDirectionDegrees,WindSpeedMPH,WindSpeedGustMPH,Humidity,HourlyPrecipIn,Conditions,Clouds,dailyrainin,SoftwareType,DateUTC
2013-02-18 00:02:00,27.0,18.0,30.14,SSE,154,3.0,9.0,68,0.00,,,0.00,,2013-02-18 05:02:00,
2013-02-18 00:11:00,27.0,18.0,30.14,SSE,154,3.0,9.0,68,0.00,,,0.00,,2013-02-18 05:11:00,
2013-02-18 00:21:00,27.0,18.0,30.13,SE,128,2.0,7.0,69,0.00,,,0.00,,2013-02-18 05:21:00,
2013-02-18 00:31:00,27.0,18.0,30.13,SSE,159,3.0,8.0,69,0.00,,,0.00,,2013-02-18 05:31:00,
2013-02-18 00:41:00,27.0,18.0,30.13,SSE,159,3.0,8.0,69,0.00,,,0.00,,2013-02-18 05:41:00,
2013-02-18 00:52:00,28.0,18.0,30.11,SE,142,4.0,9.0,67,0.00,,,0.00,,2013-02-18 05:52:00,
2013-02-18 01:02:00,28.0,18.0,30.11,East,91,3.0,7.0,66,0.00,,,0.00,,2013-02-18 06:02:00,
2013-02-18 01:11:00,28.0,18.0,30.11,East,91,3.0,7.0,66,0.00,,,0.00,,2013-02-18 06:11:00,
2013-02-18 01:21:00,28.0,18.0,30.11,SSE,163,4.0,9.0,65,0.00,,,0.00,,2013-02-18 06:21:00,
2013-02-18 01:32:00,28.0,18.0,30.10,SE,142,3.0,7.0,66,0.00,,,0.00,,2013-02-18 06:32:00,
2013-02-18 01:41:00,28.0,18.0,30.10,SE,142,3.0,7.0,66,0.00,,,0.00,,2013-02-18 06:41:00,
2013-02-18 01:51:00,28.0,18.0,30.10,SSE,167,2.0,8.0,67,0.00,,,0.00,,2013-02-18 06:51:00,
2013-02-18 02:01:00,28.0,18.0,30.09,SE,142,3.0,10.0,66,0.00,,,0.00,,2013-02-18 07:01:00,
2013-02-18 02:11:00,28.0,18.0,30.09,SE,142,3.0,10.0,66,0.00,,,0.00,,2013-02-18 07:11:00,
2013-02-18 02:22:00,28.0,18.0,30.08,SSE,155,2.0,9.0,67,0.00,,,0.00,,2013-02-18 07:22:00,
2013-02-18 02:32:00,28.0,18.0,30.07,SSE,164,5.0,9.0,66,0.00,,,0.00,,2013-02-18 07:32:00,
2013-02-18 02:42:00,28.0,18.0,30.07,SSE,164,5.0,9.0,66,0.00,,,0.00,,2013-02-18 07:42:00,
2013-02-18 02:52:00,28.0,18.0,30.06,SE,126,3.0,9.0,67,0.00,,,0.00,,2013-02-18 07:52:00,
2013-02-18 03:01:00,29.0,19.0,30.06,SSE,163,4.0,10.0,67,0.00,,,0.00,,2013-02-18 08:01:00,
2013-02-18 03:11:00,29.0,19.0,30.06,SSE,163,4.0,10.0,67,0.00,,,0.00,,2013-02-18 08:11:00,
2013-02-18 03:21:00,29.0,19.0,30.05,South,187,4.0,10.0,67,0.00,,,0.00,,2013-02-18 08:21:00,
2013-02-18 03:32:00,29.0,19.0,30.04,SW,229,4.0,10.0,67,0.00,,,0.00,,2013-02-18 08:32:00,
2013-02-18 03:42:00,29.0,19.0,30.04,SW,229,4.0,10.0,67,0.00,,,0.00,,2013-02-18 08:42:00,
2013-02-18 03:52:00,29.0,19.0,30.03,SSE,152,4.0,11.0,67,0.00,,,0.00,,2013-02-18 08:52:00,
2013-02-18 04:02:00,29.0,19.0,30.03,South,182,4.0,11.0,66,0.00,,,0.00,,2013-02-18 09:02:00,
2013-02-18 04:11:00,29.0,19.0,30.03,South,182,4.0,11.0,66,0.00,,,0.00,,2013-02-18 09:11:00,
2013-02-18 04:22:00,29.0,19.0,30.01,SSW,193,5.0,11.0,66,0.00,,,0.00,,2013-02-18 09:22:00,
2013-02-18 04:31:00,30.0,20.0,30.01,SSW,209,7.0,13.0,66,0.00,,,0.00,,2013-02-18 09:31:00,
2013-02-18 04:42:00,30.0,20.0,30.01,SSW,209,7.0,13.0,66,0.00,,,0.00,,2013-02-18 09:42:00,
2013-02-18 04:52:00,30.0,20.0,29.99,SSE,165,5.0,12.0,66,0.00,,,0.00,,2013-02-18 09:52:00,
2013-02-18 05:01:00,30.0,20.0,29.98,SSE,163,6.0,12.0,66,0.00,,,0.00,,2013-02-18 10:01:00,
2013-02-18 05:11:00,30.0,20.0,29.98,SSE,163,6.0,12.0,66,0.00,,,0.00,,2013-02-18 10:11:00,
2013-02-18 05:21:00,30.0,20.0,29.97,South,189,5.0,12.0,66,0.00,,,0.00,,2013-02-18 10:21:00,
2013-02-18 05:31:00,30.0,20.0,29.97,South,173,5.0,13.0,67,0.00,,,0.00,,2013-02-18 10:31:00,
2013-02-18 05:42:00,30.0,20.0,29.97,South,173,5.0,13.0,67,0.00,,,0.00,,2013-02-18 10:42:00,
2013-02-18 05:53:00,30.0,21.0,29.96,SE,145,6.0,13.0,68,0.00,,,0.00,,2013-02-18 10:53:00,
2013-02-18 06:01:00,30.0,21.0,29.96,SW,222,6.0,12.0,68,0.00,,,0.00,,2013-02-18 11:01:00,
2013-02-18 06:11:00,30.0,21.0,29.96,SW,222,6.0,12.0,68,0.00,,,0.00,,2013-02-18 11:11:00,
2013-02-18 06:22:00,30.0,21.0,29.95,SSE,163,7.0,13.0,69,0.00,,,0.00,,2013-02-18 11:22:00,
2013-02-18 06:32:00,30.0,21.0,29.95,SSW,202,7.0,15.0,70,0.00,,,0.00,,2013-02-18 11:32:00,
2013-02-18 06:42:00,30.0,21.0,29.95,SSW,202,7.0,15.0,70,0.00,,,0.00,,2013-02-18 11:42:00,
2013-02-18 06:53:00,30.0,22.0,29.94,SSW,203,5.0,11.0,71,0.00,,,0.00,,2013-02-18 11:53:00,
2013-02-18 07:11:00,30.0,22.0,29.93,SSE,152,6.0,12.0,71,0.00,,,0.00,,2013-02-18 12:11:00,
2013-02-18 07:22:00,30.0,22.0,29.93,SW,218,6.0,14.0,71,0.00,,,0.00,,2013-02-18 12:22:00,
2013-02-18 07:32:00,30.0,22.0,29.92,South,178,6.0,12.0,71,0.00,,,0.00,,2013-02-18 12:32:00,
2013-02-18 07:42:00,30.0,22.0,29.92,South,178,6.0,12.0,71,0.00,,,0.00,,2013-02-18 12:42:00,
2013-02-18 07:53:00,31.0,23.0,29.92,SSE,167,6.0,12.0,71,0.00,,,0.00,,2013-02-18 12:53:00,
2013-02-18 08:02:00,31.0,23.0,29.91,SSE,149,5.0,11.0,72,0.00,,,0.00,,2013-02-18 13:02:00,
2013-02-18 08:12:00,31.0,23.0,29.91,SSE,149,5.0,11.0,72,0.00,,,0.00,,2013-02-18 13:12:00,
2013-02-18 08:22:00,31.0,23.0,29.91,SSE,158,6.0,12.0,72,0.00,,,0.00,,2013-02-18 13:22:00,
2013-02-18 08:32:00,32.0,24.0,29.90,South,182,6.0,12.0,72,0.00,,,0.00,,2013-02-18 13:32:00,
2013-02-18 08:42:00,32.0,24.0,29.90,South,182,6.0,12.0,72,0.00,,,0.00,,2013-02-18 13:42:00,
2013-02-18 08:53:00,33.0,25.0,29.90,SSW,194,5.0,11.0,73,0.00,,,0.00,,2013-02-18 13:53:00,
2013-02-18 09:02:00,34.0,26.0,29.90,South,175,6.0,12.0,73,0.00,,,0.00,,2013-02-18 14:02:00,
2013-02-18 09:11:00,34.0,26.0,29.90,South,175,6.0,12.0,73,0.00,,,0.00,,2013-02-18 14:11:00,
2013-02-18 09:22:00,37.0,28.0,29.90,SSW,200,7.0,14.0,70,0.00,,,0.00,,2013-02-18 14:22:00,
2013-02-18 09:33:00,38.0,29.0,29.89,South,176,7.0,14.0,69,0.00,,,0.00,,2013-02-18 14:33:00,
2013-02-18 09:42:00,38.0,29.0,29.89,South,176,7.0,14.0,69,0.00,,,0.00,,2013-02-18 14:42:00,
2013-02-18 09:53:00,39.0,30.0,29.89,South,170,7.0,13.0,69,0.00,,,0.00,,2013-02-18 14:53:00,
2013-02-18 10:02:00,40.0,30.0,29.88,SSW,205,8.0,14.0,68,0.00,,,0.00,,2013-02-18 15:02:00,
2013-02-18 10:11:00,40.0,30.0,29.88,SSW,205,8.0,14.0,68,0.00,,,0.00,,2013-02-18 15:11:00,
2013-02-18 10:22:00,41.0,32.0,29.88,South,191,8.0,17.0,69,0.00,,,0.00,,2013-02-18 15:22:00,
2013-02-18 10:32:00,42.0,32.0,29.87,SSW,206,8.0,17.0,68,0.00,,,0.00,,2013-02-18 15:32:00,
2013-02-18 10:42:00,42.0,32.0,29.87,SSW,206,8.0,17.0,68,0.00,,,0.00,,2013-02-18 15:42:00,
2013-02-18 10:52:00,43.0,33.0,29.86,SSW,207,7.0,14.0,68,0.00,,,0.00,,2013-02-18 15:52:00,
2013-02-18 11:02:00,45.0,35.0,29.86,South,189,11.0,17.0,67,0.00,,,0.00,,2013-02-18 16:02:00,
2013-02-18 11:12:00,45.0,35.0,29.86,South,189,11.0,17.0,67,0.00,,,0.00,,2013-02-18 16:12:00,
2013-02-18 11:22:00,45.0,35.0,29.85,South,182,8.0,19.0,69,0.00,,,0.00,,2013-02-18 16:22:00,
2013-02-18 11:32:00,46.0,36.0,29.84,SW,221,13.0,21.0,67,0.00,,,0.00,,2013-02-18 16:32:00,
2013-02-18 11:42:00,46.0,36.0,29.84,SW,221,13.0,21.0,67,0.00,,,0.00,,2013-02-18 16:42:00,
2013-02-18 11:53:00,47.0,37.0,29.84,SSW,202,12.0,23.0,68,0.00,,,0.00,,2013-02-18 16:53:00,
2013-02-18 12:03:00,47.0,37.0,29.84,SSW,199,14.0,26.0,67,0.00,,,0.00,,2013-02-18 17:03:00,
2013-02-18 12:12:00,47.0,37.0,29.84,SSW,199,14.0,26.0,67,0.00,,,0.00,,2013-02-18 17:12:00,
2013-02-18 12:22:00,48.0,38.0,29.84,SW,215,11.0,22.0,67,0.00,,,0.00,,2013-02-18 17:22:00,
2013-02-18 12:32:00,48.0,38.0,29.83,SW,228,10.0,22.0,69,0.00,,,0.00,,2013-02-18 17:32:00,
2013-02-18 12:42:00,48.0,38.0,29.83,SW,228,10.0,22.0,69,0.00,,,0.00,,2013-02-18 17:42:00,
2013-02-18 12:53:00,48.0,38.0,29.83,SW,228,10.0,22.0,69,0.00,,,0.00,,2013-02-18 17:53:00,
2013-02-18 13:02:00,50.0,41.0,29.82,SSW,208,10.0,24.0,70,0.00,,,0.00,,2013-02-18 18:02:00,
2013-02-18 13:12:00,50.0,41.0,29.82,SSW,208,10.0,24.0,70,0.00,,,0.00,,2013-02-18 18:12:00,
2013-02-18 13:23:00,51.0,42.0,29.82,South,187,11.0,21.0,70,0.00,,,0.00,,2013-02-18 18:23:00,
2013-02-18 13:32:00,52.0,43.0,29.80,SW,215,10.0,22.0,70,0.00,,,0.00,,2013-02-18 18:32:00,
2013-02-18 13:42:00,52.0,43.0,29.80,SW,215,10.0,22.0,70,0.00,,,0.00,,2013-02-18 18:42:00,
2013-02-18 13:53:00,52.0,43.0,29.80,South,180,10.0,19.0,71,0.00,,,0.00,,2013-02-18 18:53:00,
2013-02-18 14:02:00,51.0,43.0,29.78,SW,222,9.0,22.0,75,0.00,,,0.00,,2013-02-18 19:02:00,
2013-02-18 14:12:00,51.0,43.0,29.78,SW,222,9.0,22.0,75,0.00,,,0.00,,2013-02-18 19:12:00,
2013-02-18 14:22:00,51.0,43.0,29.78,SSW,207,10.0,16.0,75,0.00,,,0.00,,2013-02-18 19:22:00,
2013-02-18 14:33:00,50.0,43.0,29.77,WSW,257,7.0,21.0,77,0.00,,,0.00,,2013-02-18 19:33:00,
2013-02-18 14:42:00,50.0,43.0,29.77,WSW,257,7.0,21.0,77,0.00,,,0.00,,2013-02-18 19:42:00,
2013-02-18 15:02:00,50.0,43.0,29.75,WSW,244,11.0,19.0,78,0.00,,,0.00,,2013-02-18 20:02:00,
2013-02-18 15:12:00,50.0,43.0,29.75,WSW,244,11.0,19.0,78,0.00,,,0.00,,2013-02-18 20:12:00,
2013-02-18 15:23:00,50.0,43.0,29.74,SSW,211,10.0,21.0,78,0.00,,,0.00,,2013-02-18 20:23:00,
2013-02-18 15:33:00,49.0,43.0,29.73,SSW,200,10.0,18.0,79,0.00,,,0.00,,2013-02-18 20:33:00,
2013-02-18 15:42:00,49.0,43.0,29.73,SSW,200,10.0,18.0,79,0.00,,,0.00,,2013-02-18 20:42:00,
2013-02-18 15:53:00,49.0,43.0,29.73,SSW,207,9.0,17.0,79,0.00,,,0.00,,2013-02-18 20:53:00,
2013-02-18 16:03:00,49.0,43.0,29.72,SSW,204,9.0,18.0,80,0.00,,,0.00,,2013-02-18 21:03:00,
2013-02-18 16:12:00,49.0,43.0,29.72,SSW,204,9.0,18.0,80,0.00,,,0.00,,2013-02-18 21:12:00,
2013-02-18 16:22:00,49.0,43.0,29.72,South,188,9.0,16.0,81,0.00,,,0.00,,2013-02-18 21:22:00,
2013-02-18 16:32:00,48.0,43.0,29.72,SSW,208,9.0,19.0,83,0.00,,,0.00,,2013-02-18 21:32:00,
2013-02-18 16:42:00,48.0,43.0,29.72,SSW,208,9.0,19.0,83,0.00,,,0.00,,2013-02-18 21:42:00,
2013-02-18 16:53:00,48.0,44.0,29.72,SSW,198,8.0,16.0,86,0.00,,,0.00,,2013-02-18 21:53:00,
2013-02-18 17:02:00,47.0,44.0,29.71,SSW,209,7.0,17.0,89,0.00,,,0.00,,2013-02-18 22:02:00,
2013-02-18 17:12:00,46.0,44.0,29.70,SW,221,8.0,14.0,92,0.02,,,0.02,,2013-02-18 22:12:00,
2013-02-18 17:22:00,46.0,44.0,29.70,SW,221,8.0,14.0,92,0.02,,,0.02,,2013-02-18 22:22:00,
2013-02-18 17:33:00,47.0,45.0,29.70,SSW,199,10.0,19.0,92,0.02,,,0.02,,2013-02-18 22:33:00,
2013-02-18 17:43:00,47.0,45.0,29.70,SSW,199,10.0,19.0,92,0.02,,,0.02,,2013-02-18 22:43:00,
2013-02-18 17:53:00,47.0,44.0,29.69,SW,225,12.0,21.0,90,0.02,,,0.02,,2013-02-18 22:53:00,
2013-02-18 18:02:00,47.0,43.0,29.67,SW,221,13.0,25.0,86,0.01,,,0.02,,2013-02-18 23:02:00,
2013-02-18 18:12:00,47.0,43.0,29.67,SW,221,13.0,25.0,86,0.01,,,0.02,,2013-02-18 23:12:00,
2013-02-18 18:22:00,47.0,43.0,29.67,South,183,10.0,21.0,86,0.00,,,0.02,,2013-02-18 23:22:00,
2013-02-18 18:33:00,47.0,43.0,29.65,SSE,160,10.0,18.0,85,0.00,,,0.02,,2013-02-18 23:33:00,
2013-02-18 18:42:00,47.0,43.0,29.65,SSE,160,10.0,18.0,85,0.00,,,0.02,,2013-02-18 23:42:00,
2013-02-18 18:53:00,47.0,42.0,29.65,SW,227,10.0,21.0,84,0.00,,,0.02,,2013-02-18 23:53:00,
2013-02-18 19:02:00,46.0,41.0,29.65,SSW,192,11.0,23.0,84,0.00,,,0.02,,2013-02-19 00:02:00,
2013-02-18 19:12:00,46.0,41.0,29.65,SSW,192,11.0,23.0,84,0.00,,,0.02,,2013-02-19 00:12:00,
2013-02-18 19:22:00,46.0,42.0,29.64,SSW,200,8.0,20.0,85,0.00,,,0.02,,2013-02-19 00:22:00,
2013-02-18 19:33:00,45.0,41.0,29.62,SSW,192,8.0,21.0,86,0.00,,,0.02,,2013-02-19 00:33:00,
2013-02-18 19:43:00,45.0,41.0,29.62,SSW,192,8.0,21.0,86,0.00,,,0.02,,2013-02-19 00:43:00,
2013-02-18 19:54:00,45.0,42.0,29.62,SSW,213,10.0,20.0,89,0.01,,,0.03,,2013-02-19 00:54:00,
2013-02-18 20:03:00,44.0,41.0,29.62,South,180,10.0,16.0,90,0.02,,,0.04,,2013-02-19 01:03:00,
2013-02-18 20:13:00,44.0,41.0,29.62,South,180,10.0,16.0,90,0.02,,,0.04,,2013-02-19 01:13:00,
2013-02-18 20:24:00,44.0,42.0,29.61,South,181,8.0,17.0,92,0.05,,,0.07,,2013-02-19 01:24:00,
2013-02-18 20:34:00,44.0,42.0,29.61,SSW,196,7.0,16.0,92,0.07,,,0.09,,2013-02-19 01:34:00,
2013-02-18 20:43:00,44.0,42.0,29.61,SSW,196,7.0,16.0,92,0.07,,,0.09,,2013-02-19 01:43:00,
2013-02-18 20:56:00,44.0,42.0,29.59,SSW,196,8.0,19.0,92,0.07,,,0.10,,2013-02-19 01:56:00,
2013-02-18 21:03:00,44.0,42.0,29.58,SSE,155,9.0,19.0,92,0.06,,,0.10,,2013-02-19 02:03:00,
2013-02-18 21:13:00,44.0,42.0,29.58,SSE,155,9.0,19.0,92,0.06,,,0.10,,2013-02-19 02:13:00,
2013-02-18 21:23:00,44.0,42.0,29.57,SW,215,9.0,18.0,93,0.04,,,0.11,,2013-02-19 02:23:00,
2013-02-18 21:34:00,44.0,42.0,29.57,SW,235,10.0,21.0,93,0.02,,,0.11,,2013-02-19 02:34:00,
2013-02-18 21:42:00,44.0,42.0,29.57,SW,235,10.0,21.0,93,0.02,,,0.11,,2013-02-19 02:42:00,
2013-02-18 21:55:00,44.0,42.0,29.56,SSW,207,11.0,18.0,93,0.03,,,0.13,,2013-02-19 02:55:00,
2013-02-18 22:06:00,45.0,43.0,29.56,South,178,10.0,24.0,93,0.04,,,0.14,,2013-02-19 03:06:00,
2013-02-18 22:14:00,45.0,43.0,29.56,South,178,10.0,24.0,93,0.04,,,0.14,,2013-02-19 03:14:00,
2013-02-18 22:33:00,45.0,43.0,29.54,SSW,192,10.0,17.0,93,0.04,,,0.15,,2013-02-19 03:33:00,
2013-02-18 22:44:00,45.0,43.0,29.54,SSW,192,10.0,17.0,93,0.04,,,0.15,,2013-02-19 03:44:00,
2013-02-18 22:54:00,45.0,43.0,29.53,SSW,206,10.0,20.0,94,0.04,,,0.17,,2013-02-19 03:54:00,
2013-02-18 23:02:00,45.0,43.0,29.52,SSE,161,9.0,17.0,94,0.05,,,0.19,,2013-02-19 04:02:00,
2013-02-18 23:14:00,45.0,43.0,29.52,SSE,161,9.0,17.0,94,0.05,,,0.19,,2013-02-19 04:14:00,
2013-02-18 23:23:00,45.0,43.0,29.52,SSW,199,8.0,18.0,94,0.08,,,0.22,,2013-02-19 04:23:00,
2013-02-18 23:33:00,40.0,38.0,29.55,West,279,21.0,36.0,93,0.12,,,0.28,,2013-02-19 04:33:00,
2013-02-18 23:43:00,40.0,38.0,29.55,West,279,21.0,36.0,93,0.12,,,0.28,,2013-02-19 04:43:00,
2013-02-18 23:55:00,37.0,35.0,29.57,West,271,18.0,27.0,93,0.13,,,0.30,,2013-02-19 04:55:00,